Regional Weather Roundup
Issued by NWS

Home | Current Version | Previous Version | Graphics & Text | Print | Product List | Glossary On
Versions: 1 2 3 4 5 6 7 8 9 10 11 12 13 14 15 16 17 18 19 20 21 22 23 24 25 26 27 28 29 30 31 32 33 34 35 36 37 38 39 40 41 42 43 44 45 46 47 48 49 50
000
ASUS43 KBIS 240610
RWRND

NORTH DAKOTA REGIONAL WEATHER ROUNDUP
NATIONAL WEATHER SERVICE BISMARCK ND
100 AM CDT SUN MAY 24 2015

NOTE: "FAIR" INDICATES FEW OR NO CLOUDS BELOW 12,000 FEET WITH NO
SIGNIFICANT WEATHER AND/OR OBSTRUCTIONS TO VISIBILITY.


NDZ001>003-009>011-017-240700-
NORTHWEST NORTH DAKOTA

CITY           SKY/WX    TMP DP  RH WIND       PRES   REMARKS
WILLISTON      PTCLDY    49  42  77 CALM      30.10R
6HR MIN TEMP:  46; 6HR MAX TEMP:  71;

MINOT          PTCLDY    56  46  69 SW8       30.09S
MINOT AFB      PTCLDY    54  47  77 SW2       30.08S
$$

NDZ018>021-031>035-040>046-240700-
SOUTHWEST NORTH DAKOTA

CITY           SKY/WX    TMP DP  RH WIND       PRES   REMARKS
BISMARCK       CLOUDY    55  51  86 SE5       30.11S
6HR MIN TEMP:  54; 6HR MAX TEMP:  63; 6HR PCP: TRACE;

DICKINSON      MOCLDY    48  45  89 SE7       30.09S
GARRISON         N/A     56  47  71 CALM      30.11R
6HR MIN TEMP:  55; 6HR MAX TEMP:  70;

HETTINGER ARPT PTCLDY    47  45  93 NE7       30.10S
$$

NDZ004>008-012>016-024-026-027-054-240700-
NORTHEAST NORTH DAKOTA

CITY           SKY/WX    TMP DP  RH WIND       PRES   REMARKS
GRAND FORKS    MOCLDY    51  45  79 CALM      30.09S
GRND FRKS AFB  PTCLDY    53  46  75 SW3       30.10S
DEVILS LAKE    PTCLDY    57  46  67 CALM      30.10S
$$

NDZ022-023-025-028>030-036>039-047>053-240700-
SOUTHEAST NORTH DAKOTA

CITY           SKY/WX    TMP DP  RH WIND       PRES   REMARKS
FARGO          PTCLDY    55  48  77 CALM      30.10S
6HR MIN TEMP:  54; 6HR MAX TEMP:  70;

JAMESTOWN      MOCLDY    55  51  86 CALM      30.10S
$$




USA.gov is the U.S. government's official web portal to all federal, state and local government web resources and services.